TimeEDT,TemperatureF,Dew PointF,Humidity,Sea Level PressureIn,VisibilityMPH,Wind Direction,Wind SpeedMPH,Gust SpeedMPH,PrecipitationIn,Events,Conditions,WindDirDegrees,DateUTC
12:21 AM,37.4,33.8,87,30.06,10.0,North,6.9,-,N/A,,Overcast,350,2011-04-19 04:21:00
12:54 AM,37.0,33.1,86,30.06,10.0,North,3.5,-,N/A,,Overcast,360,2011-04-19 04:54:00
1:05 AM,37.4,33.8,87,30.07,10.0,North,3.5,-,N/A,,Overcast,350,2011-04-19 05:05:00
1:26 AM,37.4,32.0,81,30.06,10.0,NNE,3.5,-,N/A,,Overcast,20,2011-04-19 05:26:00
1:40 AM,37.4,32.0,81,30.07,10.0,North,3.5,-,N/A,,Overcast,360,2011-04-19 05:40:00
1:54 AM,37.0,32.0,82,30.07,10.0,North,4.6,-,N/A,,Overcast,10,2011-04-19 05:54:00
2:54 AM,36.0,30.9,82,30.08,10.0,NNW,3.5,-,N/A,,Overcast,340,2011-04-19 06:54:00
3:16 AM,35.6,32.0,87,30.08,10.0,Calm,Calm,-,N/A,,Overcast,0,2011-04-19 07:16:00
3:54 AM,36.0,32.0,86,30.09,10.0,Calm,Calm,-,N/A,,Overcast,0,2011-04-19 07:54:00
4:02 AM,35.6,32.0,87,30.09,10.0,North,4.6,-,N/A,,Overcast,10,2011-04-19 08:02:00
4:54 AM,35.1,32.0,89,30.10,10.0,NNE,3.5,-,N/A,,Overcast,20,2011-04-19 08:54:00
5:54 AM,35.1,30.9,85,30.12,10.0,Calm,Calm,-,N/A,,Overcast,0,2011-04-19 09:54:00
6:54 AM,34.0,30.9,89,30.13,9.0,Calm,Calm,-,N/A,Fog,Patches of Fog,0,2011-04-19 10:54:00
7:54 AM,37.0,32.0,82,30.15,10.0,Calm,Calm,-,N/A,,Overcast,0,2011-04-19 11:54:00
8:24 AM,37.4,33.8,87,30.15,10.0,Calm,Calm,-,N/A,,Overcast,0,2011-04-19 12:24:00
8:54 AM,37.9,32.0,79,30.17,10.0,Calm,Calm,-,N/A,,Overcast,0,2011-04-19 12:54:00
9:11 AM,39.2,32.0,75,30.16,10.0,Calm,Calm,-,N/A,,Overcast,0,2011-04-19 13:11:00
9:54 AM,39.0,32.0,76,30.16,10.0,ENE,4.6,-,N/A,,Overcast,70,2011-04-19 13:54:00
10:54 AM,39.9,32.0,73,30.16,10.0,SE,4.6,-,N/A,,Overcast,130,2011-04-19 14:54:00
11:54 AM,41.0,30.9,67,30.15,10.0,East,5.8,-,N/A,,Overcast,80,2011-04-19 15:54:00
12:54 PM,42.1,30.9,65,30.15,10.0,East,8.1,-,N/A,,Overcast,80,2011-04-19 16:54:00
1:54 PM,43.0,32.0,65,30.12,10.0,East,8.1,-,N/A,,Overcast,100,2011-04-19 17:54:00
2:54 PM,44.1,32.0,63,30.12,10.0,East,4.6,-,N/A,,Overcast,90,2011-04-19 18:54:00
3:54 PM,45.0,33.1,63,30.09,10.0,ESE,6.9,-,0.00,Rain,Light Rain,110,2011-04-19 19:54:00
4:54 PM,45.0,35.1,68,30.08,10.0,ESE,10.4,-,0.00,Rain,Light Rain,120,2011-04-19 20:54:00
5:54 PM,44.1,36.0,73,30.07,10.0,East,5.8,-,0.00,Rain,Light Rain,90,2011-04-19 21:54:00
6:54 PM,43.0,37.9,82,30.07,10.0,ESE,5.8,-,0.03,Rain,Light Rain,110,2011-04-19 22:54:00
7:54 PM,42.1,39.0,89,30.06,10.0,ESE,8.1,-,0.04,Rain,Light Rain,110,2011-04-19 23:54:00
8:34 PM,42.8,37.4,81,30.06,10.0,ESE,13.8,-,0.01,Rain,Light Rain,110,2011-04-20 00:34:00
8:54 PM,41.0,37.0,86,30.06,10.0,ESE,15.0,-,0.01,Rain,Light Rain,110,2011-04-20 00:54:00
9:54 PM,41.0,36.0,82,30.05,10.0,ESE,12.7,-,0.00,Rain,Light Rain,110,2011-04-20 01:54:00
10:37 PM,41.0,37.4,87,30.04,4.0,East,8.1,-,0.01,Rain,Light Rain,100,2011-04-20 02:37:00
10:44 PM,41.0,37.4,87,30.04,5.0,East,10.4,-,0.01,Rain,Light Rain,100,2011-04-20 02:44:00
10:54 PM,41.0,37.9,89,30.04,6.0,East,11.5,-,0.02,Rain,Light Rain,100,2011-04-20 02:54:00
11:54 PM,39.9,37.0,89,29.99,6.0,ESE,15.0,20.7,0.02,Rain,Light Rain,110,2011-04-20 03:54:00
11:56 PM,39.2,37.4,93,29.99,6.0,ESE,15.0,20.7,0.00,Rain,Light Rain,110,2011-04-20 03:56:00